GW3467 Weather Reports


time (UTC)temp
F
wind
direction
speed
knots
gust
knots
rain 1hr
in
rain 24hr
in
rain mn
in
humidity
%
barometer
mb
20260502170114 41 139 1.7 5.2 0.00 0.00 0.00 79 1018.0
20260502164101 42 310 4.3 6.1 0.00 0.00 0.00 77 1018.0
20260502163556 43 15 2.6 5.2 0.00 0.00 0.00 78 1017.8
20260502163054 42 269 5.2 6.1 0.00 0.00 0.00 75 1017.9
20260502162550 42 267 3.5 7.8 0.00 0.00 0.00 75 1017.9
20260502162048 42 299 3.5 5.2 0.00 0.00 0.00 76 1017.9
20260502161544 43 228 0.9 3.5 0.00 0.00 0.00 76 1018.2
20260502161042 42 350 1.7 2.6 0.00 0.00 0.00 77 1018.1
20260502160540 42 165 0.0 2.6 0.00 0.00 0.00 78 1018.0
20260502151953 41 250 3.5 5.2 0.00 0.00 0.00 78 1017.9
20260502151449 41 355 2.6 5.2 0.00 0.00 0.00 77 1017.7
20260502150947 42 10 4.3 7.0 0.00 0.00 0.00 78 1017.9
20260502150444 41 339 4.3 6.1 0.00 0.00 0.00 80 1017.9
20260502130329 39 232 3.5 3.5 0.00 0.00 0.00 84 1017.4
20260502123814 36 273 0.9 3.5 0.00 0.00 0.00 85 1017.3
20260502123312 36 174 0.0 3.5 0.00 0.00 0.00 85 1017.3
20260502122808 36 252 2.6 6.1 0.00 0.00 0.00 86 1017.2
20260502122306 36 226 1.7 1.7 0.00 0.00 0.00 86 1017.1
20260502121803 35 30 3.5 5.2 0.00 0.00 0.00 86 1017.1
20260502121300 35 206 1.7 5.2 0.00 0.00 0.00 86 1017.1
20260502120757 35 296 3.5 5.2 0.00 0.00 0.00 85 1017.4
20260502120253 35 231 2.6 6.1 0.00 0.00 0.00 86 1017.1
20260502115751 35 50 1.7 5.2 0.00 0.00 0.00 86 1017.2
20260502115248 35 200 0.9 1.7 0.00 0.00 0.00 87 1017.1
20260502114744 34 205 0.9 2.6 0.00 0.00 0.00 87 1017.2
20260502114241 34 258 3.5 3.5 0.00 0.00 0.00 86 1017.2
20260502113738 34 298 3.5 6.1 0.00 0.00 0.00 87 1017.2
20260502113236 34 247 2.6 3.5 0.00 0.00 0.00 88 1017.3
20260502112734 33 197 0.0 1.7 0.00 0.00 0.00 89 1017.2
20260502112231 33 208 0.9 1.7 0.00 0.00 0.00 89 1017.1
20260502111728 33 200 0.0 1.7 0.00 0.00 0.00 90 1016.9
20260502111226 33 207 0.0 0.9 0.00 0.00 0.00 90 1017.4
20260502110723 33 224 0.9 1.7 0.00 0.00 0.00 91 1016.9
20260502110221 33 184 0.0 0.0 0.00 0.00 0.00 91 1016.9
20260502105719 33 218 0.9 1.7 0.00 0.00 0.00 91 1017.0
20260502105215 33 197 0.0 0.9 0.00 0.00 0.00 90 1017.0
20260502104712 33 206 0.9 0.9 0.00 0.00 0.00 90 1016.9
20260502104210 33 209 0.0 0.0 0.00 0.00 0.00 90 1016.9
20260502103707 33 204 0.9 0.9 0.00 0.00 0.00 90 1016.9
20260502103205 33 204 0.0 0.9 0.00 0.00 0.00 90 1016.9
20260502102701 33 229 0.9 2.6 0.00 0.00 0.00 90 1017.2
20260502102158 33 202 0.9 1.7 0.00 0.00 0.00 89 1016.6
20260502101656 34 242 1.7 1.7 0.00 0.00 0.00 89 1017.1
20260502101154 34 73 2.6 3.5 0.00 0.00 0.00 88 1016.8
20260502100652 33 161 0.0 2.6 0.00 0.00 0.00 89 1016.9
20260502100150 34 207 0.0 0.9 0.00 0.00 0.00 89 1016.6
20260502091124 35 206 0.9 2.6 0.00 0.00 0.00 87 1016.8
20260502090621 35 236 1.7 1.7 0.00 0.00 0.00 87 1016.8
20260502090119 35 272 1.7 1.7 0.00 0.00 0.00 87 1016.6
20260502071516 37 215 1.7 3.5 0.00 0.00 0.00 95 1016.5
20260502071014 37 214 1.7 2.6 0.00 0.00 0.00 96 1016.5
20260502070512 37 203 0.9 0.9 0.00 0.00 0.00 96 1016.6
20260502070010 37 212 1.7 1.7 0.00 0.00 0.00 96 1016.5
20260502065508 37 198 0.9 1.7 0.00 0.00 0.00 96 1016.8
20260502065006 37 212 1.7 1.7 0.00 0.00 0.00 96 1016.6
20260502064504 37 231 1.7 2.6 0.00 0.00 0.00 96 1017.0
20260502064000 38 201 1.7 2.6 0.00 0.00 0.00 96 1016.9
20260502063459 38 236 2.6 3.5 0.00 0.00 0.00 97 1016.9
20260502062955 38 163 0.9 1.7 0.00 0.00 0.00 97 1016.9
20260502062452 38 202 1.7 1.7 0.00 0.00 0.00 97 1016.9
20260502061951 37 192 0.0 1.7 0.00 0.00 0.00 98 1017.0
20260502061449 37 198 0.9 1.7 0.00 0.00 0.00 98 1017.1
20260502060944 37 183 0.0 0.9 0.00 0.00 0.00 98 1016.9
20260502060440 37 194 0.0 1.7 0.00 0.00 0.00 98 1017.0
20260502055936 37 182 0.0 0.0 0.00 0.00 0.00 98 1017.0
20260502055435 38 188 0.9 0.9 0.00 0.00 0.00 98 1017.0
20260502054929 38 176 0.0 0.0 0.00 0.00 0.00 97 1017.2
20260502054426 38 184 0.0 0.0 0.00 0.00 0.00 97 1017.2
20260502053924 38 175 0.0 0.9 0.00 0.00 0.00 97 1017.0
20260502053421 38 179 0.0 0.9 0.00 0.00 0.00 97 1017.1
20260502052918 38 182 0.9 0.9 0.00 0.00 0.00 97 1017.0
20260502052416 38 199 0.0 0.9 0.00 0.00 0.00 97 1017.2
20260502051914 38 186 0.0 0.9 0.00 0.00 0.00 97 1017.1
20260502051412 39 186 0.0 0.0 0.00 0.00 0.00 96 1017.3
20260502050909 39 186 0.0 0.0 0.00 0.00 0.00 96 1017.3
20260502050405 39 186 0.0 0.0 0.00 0.00 0.00 96 1017.1
20260502045903 39 186 0.0 0.0 0.00 0.00 0.00 96 1017.3
20260502045359 39 186 0.0 0.9 0.00 0.00 0.00 96 1017.2
20260502044856 40 184 0.0 0.9 0.00 0.00 0.00 96 1017.2
20260502044352 40 170 0.0 0.0 0.00 0.00 0.00 95 1017.3
20260502043849 40 169 0.0 0.9 0.00 0.00 0.00 94 1017.3
20260502043346 40 200 0.9 1.7 0.00 0.00 0.00 94 1017.5
20260502042840 40 204 0.0 1.7 0.00 0.00 0.00 95 1017.4
20260502042338 39 194 0.0 0.9 0.00 0.00 0.00 96 1017.4
20260502041835 39 218 0.9 1.7 0.00 0.00 0.00 97 1017.3
20260502041332 39 184 0.9 0.9 0.00 0.00 0.00 97 1017.1
20260502040830 39 183 0.0 0.0 0.00 0.00 0.00 97 1017.2
20260502040326 39 183 0.0 0.9 0.00 0.00 0.00 97 1016.9
20260502035822 39 184 0.9 0.9 0.00 0.07 0.07 97 1017.1
20260502035319 39 184 0.0 0.0 0.00 0.07 0.07 96 1017.1
20260502034817 39 184 0.0 0.9 0.00 0.07 0.07 95 1017.2
20260502034315 40 196 0.0 0.0 0.00 0.07 0.07 96 1017.5
20260502033813 40 196 0.0 0.0 0.00 0.07 0.07 96 1017.3
20260502033310 40 196 0.0 0.0 0.00 0.07 0.07 95 1017.3
20260502032807 41 196 0.0 0.0 0.00 0.07 0.07 95 1017.7
20260502032305 41 196 0.0 0.0 0.00 0.07 0.07 95 1017.4
20260502031801 41 196 0.0 0.0 0.00 0.07 0.07 95 1017.3
20260502031259 41 196 0.0 0.0 0.00 0.07 0.07 94 1017.4
20260502030757 41 196 0.0 0.0 0.00 0.07 0.07 93 1017.3
20260502030254 42 196 0.0 0.0 0.00 0.07 0.07 93 1017.3
20260502025752 42 196 0.0 0.0 0.00 0.07 0.07 92 1017.3
20260502025250 42 192 0.0 0.9 0.00 0.07 0.07 92 1017.3
20260502024747 42 188 0.9 0.9 0.00 0.07 0.07 92 1017.5
20260502024245 42 175 0.9 0.9 0.00 0.07 0.07 92 1017.3
20260502023743 42 175 0.0 0.9 0.00 0.07 0.07 91 1017.3
20260502023240 42 174 0.0 0.0 0.00 0.07 0.07 91 1017.1
20260502022738 42 199 0.0 0.0 0.00 0.07 0.07 91 1017.2
20260502022233 42 188 0.0 0.0 0.00 0.07 0.07 91 1017.1
20260502021731 42 188 0.0 0.9 0.00 0.07 0.07 91 1017.0
20260502021228 42 173 0.0 0.9 0.00 0.07 0.07 91 1016.8
20260502020725 42 173 0.0 0.9 0.00 0.07 0.07 91 1017.1
20260502020222 42 173 0.9 0.9 0.00 0.07 0.07 90 1017.0
20260502015720 42 173 0.0 0.9 0.00 0.07 0.07 90 1016.9
20260502015216 42 173 0.0 0.9 0.00 0.07 0.07 90 1016.9
20260502014714 42 173 0.9 0.9 0.00 0.07 0.07 90 1016.9
20260502014211 42 172 0.0 0.0 0.00 0.07 0.07 89 1016.8
20260502013707 42 172 0.0 0.0 0.00 0.07 0.07 88 1016.6
20260502013202 42 172 0.0 0.0 0.00 0.07 0.07 89 1016.2
20260502012700 42 173 0.0 0.0 0.00 0.07 0.07 87 1016.1
20260502012158 42 173 0.0 0.9 0.00 0.07 0.07 87 1016.2
20260502011654 42 172 0.0 0.0 0.00 0.07 0.07 88 1016.3
20260502011149 42 171 0.0 0.0 0.00 0.07 0.07 88 1016.2
20260502010648 42 171 0.0 0.9 0.00 0.07 0.07 86 1016.2
20260502010144 42 197 0.0 0.9 0.00 0.07 0.07 85 1016.2
20260502005641 43 197 0.0 0.9 0.00 0.07 0.07 84 1016.3
20260502005139 43 202 0.9 1.7 0.00 0.07 0.07 85 1016.3
20260502004635 43 210 0.0 1.7 0.00 0.07 0.07 83 1016.3
20260502004131 43 348 3.5 3.5 0.00 0.07 0.07 83 1016.4
20260502003630 43 275 1.7 3.5 0.00 0.07 0.07 84 1016.2
20260502003126 43 266 1.7 2.6 0.00 0.07 0.07 85 1016.6
20260502002622 43 221 0.9 1.7 0.00 0.07 0.07 87 1016.2
20260502002120 43 204 0.0 2.6 0.00 0.07 0.07 86 1016.3
20260502001618 43 187 0.0 0.0 0.00 0.07 0.07 86 1015.9
20260502001114 43 196 0.0 0.0 0.00 0.07 0.07 86 1015.9
20260502000613 43 205 0.9 0.9 0.00 0.07 0.07 84 1015.8
20260502000110 43 199 0.0 1.7 0.00 0.07 0.07 83 1015.8
20260501235605 43 243 1.7 1.7 0.00 0.07 0.07 84 1015.9
20260501235102 43 202 0.0 0.9 0.00 0.07 0.07 84 1015.7
20260501234557 43 187 0.0 1.7 0.00 0.07 0.07 83 1015.6
20260501234055 43 221 0.9 5.2 0.00 0.07 0.07 83 1015.4
20260501233553 43 257 2.6 5.2 0.00 0.07 0.07 83 1015.4
20260501233049 44 184 0.9 5.2 0.00 0.07 0.07 83 1015.3
20260501232546 44 110 1.7 1.7 0.00 0.07 0.07 83 1015.2
20260501232043 45 291 3.5 5.2 0.00 0.07 0.07 80 1015.2
20260501231541 46 172 1.7 5.2 0.00 0.07 0.07 81 1015.1
20260501231039 47 134 0.9 5.2 0.00 0.07 0.07 80 1014.9
20260501230538 46 286 3.5 5.2 0.00 0.07 0.07 80 1015.2
20260501230035 46 266 1.7 3.5 0.00 0.07 0.07 83 1015.2
20260501225532 46 83 0.9 3.5 0.00 0.07 0.07 83 1015.3
20260501225028 47 191 0.9 3.5 0.00 0.07 0.07 81 1015.3
20260501224526 46 295 2.6 7.0 0.00 0.07 0.07 81 1015.1
20260501224023 45 284 1.7 5.2 0.00 0.07 0.07 81 1015.2
20260501223520 46 244 5.2 7.8 0.00 0.07 0.07 79 1015.3
20260501223016 46 10 2.6 5.2 0.00 0.07 0.07 81 1015.4
20260501222512 45 18 1.7 3.5 0.00 0.07 0.07 84 1015.3
20260501222009 44 308 2.6 5.2 0.00 0.07 0.07 85 1015.3
20260501221505 44 229 2.6 6.1 0.00 0.07 0.07 84 1015.4
20260501221004 44 200 1.7 7.8 0.00 0.07 0.07 83 1015.3
20260501220501 44 252 1.7 9.6 0.00 0.07 0.07 85 1015.3
20260501215957 44 268 4.3 5.2 0.00 0.07 0.07 85 1015.3
20260501215454 44 275 3.5 6.1 0.00 0.07 0.07 85 1015.1
20260501214949 44 280 1.7 6.1 0.00 0.07 0.07 85 1015.0
20260501214444 44 110 1.7 11.3 0.00 0.07 0.07 85 1014.8
20260501213940 44 294 5.2 6.1 0.00 0.07 0.07 86 1014.7
20260501213438 44 224 0.9 5.2 0.00 0.07 0.07 86 1014.7
20260501212933 44 24 5.2 7.0 0.00 0.07 0.07 85 1014.7
20260501212430 44 227 1.7 7.0 0.00 0.07 0.07 85 1014.5
20260501211927 45 79 1.7 7.8 0.00 0.07 0.07 83 1014.4
20260501211424 46 198 1.7 5.2 0.00 0.07 0.07 85 1014.4
20260501210921 45 302 2.6 7.0 0.00 0.07 0.07 85 1014.3
20260501210418 44 285 3.5 7.8 0.00 0.07 0.07 85 1014.6
20260501205915 44 264 4.3 6.1 0.00 0.07 0.07 86 1014.3
20260501205412 44 30 5.2 9.6 0.00 0.07 0.07 86 1014.1
20260501204909 44 327 2.6 5.2 0.00 0.07 0.07 87 1014.3
20260501204405 44 257 3.5 6.1 0.00 0.07 0.07 88 1014.3
20260501203901 44 236 3.5 7.0 0.00 0.07 0.07 87 1014.2
20260501203358 44 22 3.5 5.2 0.00 0.07 0.07 88 1014.0
20260501202855 44 272 3.5 11.3 0.00 0.07 0.07 88 1014.2
20260501202352 44 227 4.3 7.8 0.00 0.07 0.07 89 1014.1
20260501201849 44 309 6.1 8.7 0.00 0.07 0.07 88 1014.2
20260501201346 44 288 6.1 9.6 0.00 0.07 0.07 87 1014.1
20260501200842 44 272 6.1 9.6 0.00 0.07 0.07 87 1013.8
20260501200339 44 257 4.3 6.1 0.00 0.07 0.07 88 1013.8
20260501195838 44 292 1.7 8.7 0.00 0.07 0.07 90 1013.8
20260501195333 44 69 7.8 12.2 0.00 0.07 0.07 90 1013.9
20260501194829 44 295 3.5 7.0 0.00 0.07 0.07 91 1013.6
20260501194325 43 285 3.5 8.7 0.00 0.07 0.07 90 1013.5
20260501193821 44 29 7.0 13.9 0.00 0.07 0.07 89 1013.5
20260501193320 44 305 3.5 6.1 0.00 0.07 0.07 89 1013.5
20260501192817 44 293 5.2 8.7 0.00 0.07 0.07 89 1013.5
20260501192314 45 231 1.7 9.6 0.00 0.07 0.07 89 1013.3
20260501191811 46 222 2.6 13.0 0.00 0.07 0.07 89 1013.2
20260501191308 46 290 5.2 7.8 0.00 0.07 0.07 89 1013.0
20260501190759 46 48 4.3 13.9 0.00 0.07 0.07 89 1013.0
20260501190255 44 235 3.5 9.6 0.00 0.07 0.07 93 1012.8
20260501185750 44 302 7.0 13.0 0.00 0.07 0.07 94 1012.8
20260501185246 44 216 3.5 11.3 0.00 0.07 0.07 94 1012.5
20260501184743 46 268 0.9 8.7 0.00 0.07 0.07 92 1012.4
20260501184238 49 246 4.3 7.8 0.00 0.07 0.07 90 1012.0
20260501183734 49 250 5.2 8.7 0.00 0.07 0.07 89 1011.9
20260501183232 50 273 2.6 6.1 0.00 0.07 0.07 90 1011.9
20260501182728 49 247 4.3 6.1 0.00 0.07 0.07 92 1011.9
20260501182225 47 199 0.0 6.1 0.00 0.07 0.07 92 1012.1
20260501181722 47 206 3.5 5.2 0.00 0.07 0.07 93 1012.0
20260501181219 47 195 0.0 3.5 0.00 0.07 0.07 93 1011.9
20260501180717 47 165 3.5 5.2 0.00 0.07 0.07 93 1012.0
20260501180213 47 202 3.5 5.2 0.00 0.07 0.07 94 1012.1
20260501175710 47 206 0.9 2.6 0.00 0.07 0.07 94 1012.0
20260501175207 47 222 1.7 5.2 0.00 0.07 0.07 94 1012.0
20260501174703 47 204 1.7 5.2 0.00 0.07 0.07 94 1011.9
20260501174201 47 207 2.6 5.2 0.00 0.07 0.07 94 1011.9
20260501173658 46 204 1.7 5.2 0.00 0.07 0.07 94 1011.9
20260501173155 46 179 2.6 7.0 0.00 0.07 0.07 94 1012.1
20260501172651 46 201 2.6 7.0 0.00 0.07 0.07 94 1012.1
20260501172146 46 204 1.7 3.5 0.00 0.07 0.07 94 1012.0
20260501171642 46 248 2.6 7.0 0.05 0.07 0.07 94 1012.1